Location: Unspecified
(0.0000°N, 0.0000°E)
Time: 16:20:46
(UTC+00:00)

Oscar 18 - Pass Details

Date: 16 June 2023
Orbit: 773 x 788 km, 98.9° (Epoch: 22 September)

Event Time Altitude Azimuth Distance (km) Brightness Sun altitude
Rises 03:58:44 0° 21° (NNE) 3,238 14.5 -27.8°
Reaches altitude 10° 04:01:04 10° 25° (NNE) 2,312 13.7 -27.2°
Maximum altitude 04:06:03 56° 103° (ESE) 914 11.1 -26.1°
Enters shadow 04:08:09 33° 165° (SSE) 1,283 11.6 -25.6°
